Regional Weather Roundup
Issued by NWS

Home | Current Version | Previous Version | Text Only | Print | Product List | Glossary On
Versions: 1 2 3 4 5 6 7 8 9 10 11 12 13 14 15 16 17 18 19 20 21 22 23 24 25 26 27 28 29 30 31 32 33 34 35 36 37 38 39 40 41 42 43 44 45 46 47 48 49 50
176
ASUS43 KTOP 180559
RWRKS

WEATHER ROUNDUP FOR KANSAS
NATIONAL WEATHER SERVICE GOODLAND KS
100 AM CDT WED OCT 18 2017

NOTE:  "FAIR" INDICATES FEW OR NO CLOUDS BELOW 12,000 FEET WITH NO
SIGNIFICANT WEATHER AND/OR OBSTRUCTIONS TO VISIBILITY.

KSZ001>006-013>018-027>032-041>047-180700-
NORTHWEST KANSAS

CITY           SKY/WX    TMP DP  RH WIND       PRES   REMARKS
GOODLAND       CLEAR     58  35  42 SW15      30.01F HAZE
6HR MIN TEMP:  53; 6HR MAX TEMP:  61;

HAYS           CLEAR     51  41  68 S7        30.00F
HILL CITY      CLEAR     58  43  57 SW10      29.98F
6HR MIN TEMP:  50; 6HR MAX TEMP:  71;

RUSSELL        CLEAR     53  44  71 S13       29.99F
6HR MIN TEMP:  53; 6HR MAX TEMP:  68;

$$

KSZ061>065-074>080-084>089-180700-
SOUTHWEST KANSAS

CITY           SKY/WX    TMP DP  RH WIND       PRES   REMARKS
DODGE CITY     CLEAR     53  39  59 S12       30.02F
6HR MIN TEMP:  53; 6HR MAX TEMP:  69;

ELKHART          N/A     55  36  49 SW8         N/A
GARDEN CITY    CLEAR     48  40  73 SE9       30.01F
6HR MIN TEMP:  48; 6HR MAX TEMP:  69;

GREAT BEND     CLEAR     53  43  68 S8        30.02F
LIBERAL        CLEAR     50  42  74 S10       30.01F
$$

KSZ066>073-081>083-090>101-180700-
SOUTHEAST KANSAS

CITY           SKY/WX    TMP DP  RH WIND       PRES   REMARKS
CHANUTE        CLEAR     51  45  79 S8        30.12F
6HR MIN TEMP:  51; 6HR MAX TEMP:  61; 6HR PCP: TRACE;

COFFEYVILLE    CLEAR     51  45  79 CALM      30.13F
6HR MIN TEMP:  51; 6HR MAX TEMP:  62;

HUTCHINSON     CLEAR     50  45  83 SE6       30.05F
6HR MIN TEMP:  50; 6HR MAX TEMP:  66;

MEDICINE LODGE   N/A     56  43  61 MISG      30.04F
NEWTON         CLEAR     53  45  74 S10       30.07F
PARSONS        CLEAR     52  45  77 S3        30.14F
6HR MIN TEMP:  51; 6HR MAX TEMP:  63;

WICHITA INTL   CLEAR     52  46  80 S8        30.06F
6HR MIN TEMP:  52; 6HR MAX TEMP:  65;

WICHITA JABRA  CLEAR     51  47  86 S7        30.07F
6HR MIN TEMP:  51; 6HR MAX TEMP:  64;

WICHITA MCCONL CLEAR     54  45  71 S9        30.07F
WINFIELD       CLEAR     53  47  79 S7        30.10F
6HR MIN TEMP:  52; 6HR MAX TEMP:  63;

$$

KSZ007>012-019>026-033>040-048>060-102>105-180700-
NORTHEAST KANSAS

CITY           SKY/WX    TMP DP  RH WIND       PRES   REMARKS
CONCORDIA      CLEAR     56  46  69 S16       29.99F
6HR MIN TEMP:  56; 6HR MAX TEMP:  65;

EMPORIA        CLEAR     52  44  74 S15       30.08F
6HR MIN TEMP:  52; 6HR MAX TEMP:  64;

LAWRENCE       CLEAR     56  47  71 S8        30.08F
6HR MIN TEMP:  53; 6HR MAX TEMP:  62;

MANHATTAN      CLEAR     53  45  74 SW7       30.03F
6HR MIN TEMP:  53; 6HR MAX TEMP:  64;

OLATHE IND     CLEAR     52  46  80 S10       30.10F
6HR MIN TEMP:  52; 6HR MAX TEMP:  62;

OLATHE EXE     CLEAR     54  45  71 S10       30.10F
6HR MIN TEMP:  54; 6HR MAX TEMP:  60;

SALINA         CLEAR     57  46  66 S9        30.02F
6HR MIN TEMP:  57; 6HR MAX TEMP:  66;

TOPEKA BILLARD CLEAR     58  47  66 S8        30.06F
6HR MIN TEMP:  58; 6HR MAX TEMP:  68;

TOPEKA FORBES  CLEAR     57  47  69 S12       30.06F
6HR MIN TEMP:  57; 6HR MAX TEMP:  66;

$$




USA.gov is the U.S. government's official web portal to all federal, state and local government web resources and services.